Home > Weather > Ribeirão Prêto > Past weeks

Flag for Brazil Past Weather in Ribeirão Prêto, São Paulo, Brazil — Yesterday and Last 2 Weeks

Now
82 °F

Partly sunny.


Feels Like: 81 °F
Forecast: 63 / 83 °F
Wind: 5 mph from North

Location: Leite Lopes / Ribeir

Current Time: Jul 1, 2016 at 2:07:41 PM

Latest Report: Jul 1, 2016 at 1:00 PM


Visibility: N/A

Pressure: 30.18 "Hg (28.36 "Hg at 549m altitude)

Humidity: 30%

Dew Point: 48 °F

Location of Ribeirão PrêtoLocation

Past Weather in Ribeirão Prêto — Graph

°F

Ribeirão Prêto Temperature Yesterday

Maximum temperature yesterday: 81 °F (at 12:00 PM)
Minimum temperature yesterday: 57 °F (at 6:00 AM)
Average temperature yesterday: 69 °F

High & Low Weather Summary for the Past Weeks

 TemperatureHumidityPressure
High84 °F (Jun 18, 4:00 PM)100% (Jun 17, 2:00 AM)30.33 "Hg (Jun 17, 2:00 AM)
Low52 °F (Jun 18, 6:00 AM)22% (Jun 20, 3:00 PM)30.07 "Hg (Jun 17, 4:00 PM)
Average67 °F68%30.17 "Hg
* Reported Jun 16 1:00 PM — Jul 1 1:00 PM, Ribeirão Prêto, Weather by CustomWeather, © 2016

Note: Actual official high and low records may vary slightly from our data, if they occured in-between our weather recording intervals... More about our weather records

Advertising

Ribeirão Prêto Weather History for the Previous 24 Hours

Scroll right to see more
 ConditionsComfort  
Time TempWeatherWind HumidityBarometerVisibility
1:00 PM
Fri, Jul 1
82 °FPartly sunny.5 mph30%30.18 "HgN/A
12:00 PM77 °FPassing clouds.2 mph51%30.24 "HgN/A
11:00 AM75 °FSunny.8 mph61%30.27 "Hg10 mi
10:00 AM72 °FSunny.8 mph65%30.27 "Hg10 mi
9:00 AM66 °FSunny.9 mph78%30.27 "Hg10 mi
8:00 AM63 °FSunny.No wind83%30.24 "Hg10 mi
7:00 AM59 °FSunny.No wind94%30.21 "Hg10 mi
6:00 AM59 °FSunny.No wind88%30.21 "Hg10 mi
5:00 AM63 °FClear.No wind83%30.18 "Hg10 mi
4:00 AM63 °FClear.7 mph83%30.18 "Hg10 mi
3:00 AM61 °FClear.3 mph83%30.18 "Hg10 mi
2:00 AM61 °FClear.3 mph88%30.18 "Hg10 mi
1:00 AM63 °FClear.2 mph83%30.21 "Hg10 mi
12:00 AM64 °FClear.5 mph78%30.21 "Hg10 mi
11:00 PM
Thu, Jun 30
66 °FClear.3 mph73%30.21 "Hg10 mi
10:00 PM66 °FClear.7 mph68%30.21 "Hg10 mi
9:00 PM68 °FClear.No wind64%30.21 "Hg10 mi
8:00 PM70 °FClear.No wind60%30.21 "Hg10 mi
7:00 PM72 °FClear.2 mph61%30.18 "Hg10 mi
6:00 PM73 °FClear.5 mph57%30.15 "Hg10 mi
5:00 PM77 °FClear.7 mph44%30.15 "Hg10 mi
4:00 PM79 °FSunny.8 mph39%30.15 "Hg10 mi
3:00 PM81 °FSunny.7 mph34%30.15 "Hg10 mi
2:00 PM81 °FSunny.7 mph34%30.18 "Hg10 mi
Weather by CustomWeather, © 2016

See weather overviewHow to use our weather pages